{"data":{"norad_id":53670,"epoch":"2026-05-25T02:38:59.214912Z","epoch_age_seconds":58697,"freshness":"FRESH","line1":"1 53670U 22105Y   26145.11040758 -.00000483  00000+0 -29429-4 0  9991","line2":"2 53670  97.4516  26.2043 0002310  74.1071 286.0411 15.05649829204803","mean_motion":15.05649829,"eccentricity":0.000231,"inclination_deg":97.4516,"raan_deg":26.2043,"arg_perigee_deg":74.1071,"mean_anomaly_deg":286.0411,"bstar":-2.9429e-5,"rev_number":20480,"period_min":95.639767777638,"perigee_km":547.91139171996,"apogee_km":551.11196540946,"semimajor_km":6927.6486785647,"source":"CELESTRAK","updated_at":"2026-05-25T13:38:17.488707Z"}}